sat.trackr.live / text

‹ back to catalog

FORGESTAR-1

NORAD 64546 · 2025-135U

PAYLOAD ACTIVE UNKNOWN

§ Identity

Operator
Country
UK
Launch date
2025-06-23
Launch site
AFWTR
Launch vehicle
Mass (kg)
RCS (m²)

External: N2YO · Heavens-Above · Gunter

§ Orbital elements

Epoch: 2026-05-25T01:25:45.539904Z

Period
94.50 min
Inclination
97.4661°
Eccentricity
0.0000771
Mean motion
15.23763050 rev/d
Perigee alt
494.0 km
Apogee alt
495.0 km
Semi-major
6,872.6 km
B*
2.7691e-4
RAAN
260.9384°
Arg perigee
128.1907°
Mean anomaly
231.9400°
Rev number
5,138

§ Raw data

FORGESTAR-11 64546U 25135U   26145.05955486  .00006589  00000+0  27691-3 0  99962 64546  97.4661 260.9384 0000771 128.1907 231.9400 15.23763050 51383

JSON: /api/v1/satellites/64546 · /tle

For live sub-satellite position, see the globe view (requires WebGL).

§ Visibility from observer

Set your observer location to see the next 7 days of passes ≥ 10°. The values pass through the URL so the page stays shareable.

No JS? Fill the form by hand. The geolocation button needs JavaScript.

§ Radio — SatNOGS DB

ModeDescriptionDownlinkUplink
FM Mode S - Transmitter 1 2.261 GHz
FM Mode S - Transmitter 2 2.262 GHz

2 transmitters · refreshed weekly from db.satnogs.org